Regional Weather Roundup
Issued by NWS Wakefield, VA

Home | Current Version | Previous Version | Graphics & Text | Print | Product List | Glossary On
Versions: 1 2 3 4 5 6 7 8 9 10 11 12 13 14 15 16 17 18 19 20 21 22 23 24 25 26 27 28 29 30 31 32 33 34 35 36 37 38 39 40 41 42 43 44 45 46 47 48 49 50
000
ASUS41 KAKQ 300310
RWRAKQ

REGIONAL WEATHER ROUNDUP
NATIONAL WEATHER SERVICE WAKEFIELD VA
1100 PM EDT TUE JUL 29 2014

Note: "fair" indicates few or no clouds below 12,000 feet with no
significant weather and/or obstructions to visibility. * = Denotes
station may not report precipitation (e.g., rain,snow,etc.),
thunder or fog.

VAZ042-051-052>054-056-300400-
NORTHERN VIRGINIA

CITY           SKY/WX    TMP DP  RH WIND       PRES   REMARKS
WASH NATIONAL  PTCLDY    68  48  48 W6        30.03R
DULLES         CLEAR     56  48  74 SW3       30.03R
FORT BELVOIR   NOT AVBL
QUANTICO       CLEAR     62  56  80 NW9       30.04R
FREDERICKSBRG* PTCLDY    63  55  76 CALM      30.03R
STAFFORD*      CLEAR     56  56 100 CALM      30.07S
WARRENTON      PTCLDY    56  56 100 CALM      30.03S
CULPEPER*      MOCLDY   N/A N/A N/A CALM      30.04S
MANASSAS*      CLEAR     57  55  94 CALM      30.04R
LEESBURG*      CLEAR     59  54  82 CALM      30.04S
WINCHESTER     CLEAR     55  50  82 CALM      30.05R
$$

VAZ048-049-060>072-079>083-300400-
CENTRAL AND SOUTH CENTRAL VIRGINIA...AND NORTH CENTRAL NORTH CAROLINA

CITY           SKY/WX    TMP DP  RH WIND       PRES   REMARKS
RICHMOND       PTCLDY    69  53  56 NE6       30.03R
CHESTERFIELD*  MOCLDY   N/A N/A N/A NE5       30.04R
HANOVER        MOCLDY    65  53  65 CALM      30.04R
TAPPAHANNOCK*  CLEAR     65  50  59 CALM      30.03S
CHARLOTTSVILLE CLOUDY    65  52  62 N3        30.04R
ORANGE*        PTCLDY    63  52  67 CALM      30.06S
LOUISA*        MOCLDY    63  55  77 CALM      30.03S
FARMVILLE*     MOCLDY    66  59  77 NE5       30.01R
SOUTH HILL*    PTCLDY    66  64  94 CALM      30.05S
ROANOKE RAPIDS NOT AVBL
RALEIGH        PTCLDY    66  60  81 CALM      30.00R
$$

VAZ088>098-300400-
SOUTHEAST VIRGINIA

CITY           SKY/WX    TMP DP  RH WIND       PRES   REMARKS
NORFOLK        CLEAR     71  59  65 E3        30.00R
VIRGINIA BEACH PTCLDY    68  59  73 CALM      30.00R
NORFOLK NAVAL  PTCLDY    70  59  68 E5        30.02R
WEST POINT*    CLOUDY    71  55  57 CALM      30.04R
NEWPORT NEWS   MOCLDY    70  60  70 NE3       30.01R
LANGLEY AFB    PTCLDY    72  59  64 E7        30.00R
FORT EUSTIS    PTCLDY    70  57  63 NE3       29.99R
WILLIAMSBURG*  MOCLDY    72  63  73 CALM      30.03R
FRANKLIN*      CLEAR     63  63 100 CALM      30.00S
WAKEFIELD      MOCLDY    65  61  87 CALM      30.01R
$$

VAZ020-022-025-037-045-300400-
WESTERN AND SOUTHWEST VIRGINIA

CITY           SKY/WX    TMP DP  RH WIND       PRES   REMARKS
STAUNTON*      PTCLDY    60  51  72 CALM      30.08S
HOT SPRINGS VA CLEAR     51  46  83 NW6       30.14S
LYNCHBURG      CLOUDY    67  60  78 N6        30.05R
DANVILLE       PTCLDY    68  60  75 NE6       30.01R
MARTINSVILLE   PTCLDY    68  56  64 N5        30.06R
ROANOKE        PTCLDY    64  51  62 NW8       30.08R
BLACKSBURG     CLEAR     57  55  94 CALM        N/A
DUBLIN*        MOCLDY    60  53  76 CALM      30.12R
MARION*        PTCLDY    56  51  83 CALM      30.15S
HILLSVILLE*    PTCLDY    59  49  69 NW6       30.12R
RICHLANDS*     CLEAR     61  51  70 CALM      30.14R
WISE*          CLEAR     57  46  67 CALM      30.15S
ABINGDON*      MOCLDY    60  54  79 CALM      30.12R
$$

MDZ021>025-VAZ099-100-300400-
SOUTHERN MARYLAND AND THE DELMARVA PENINSULA

CITY           SKY/WX    TMP DP  RH WIND       PRES   REMARKS
PATUXENT RIVER CLEAR     59  51  75 NW7       30.01R
BAY BRIDGE APT   N/A     68  52  56 N6        30.00S
LEONARDTOWN    PTCLDY    59  50  72 W3        30.03S
DOVER          CLEAR     65  59  80 W5        29.97S
GEORGETOWN     CLEAR     61  55  81 VRB3      30.00S
EASTON         CLEAR     66  58  74 CALM      30.04
CAMBRIDGE      CLEAR     61  54  77 CALM      30.00S
SALISBURY      NOT AVBL
OCEAN CITY     CLEAR     56  54  93 CALM      30.00S
WALLOPS ISLAND CLEAR     65  56  72 CALM      30.02R
ACCOMACK*        N/A     63  57  82 CALM      30.01R
$$

NCZ012>017-030>032-300400-
EASTERN NORTH CAROLINA

CITY           SKY/WX    TMP DP  RH WIND       PRES   REMARKS
ELIZABETH CITY CLEAR     70  62  76 E7        30.01R
AHOSKIE*       CLEAR     64  61  93 CALM      30.01R
EDENTON*       CLEAR     68  64  85 NE3       30.01R
CURRITUCK*     CLEAR     72  58  62 E5        30.01S
KILL DEVIL HLS CLEAR     73  61  66 E6        29.99S
MANTEO         NOT AVBL
CAPE HATTERAS  MOCLDY    75  65  70 NE7       29.98S
GOLDSBORO      CLEAR     69  65  87 E2        29.97R
WASHINGTON     CLEAR     69  64  83 E5        30.01R
GREENVILLE     CLEAR     66  64  94 CALM      30.01S
NEW BERN       CLOUDY    76  66  71 E6        30.00R
WILMINGTON     CLEAR     71  68  90 N3        29.98R
$$

VAZ048-300400-
ELSEWHERE

CITY           SKY/WX    TMP DP  RH WIND       PRES   REMARKS
HARRISBURG PA  PTCLDY    61  54  77 NW5       30.01R
BALTIMORE      PTCLDY    60  52  74 W6        30.01R
ANNAPOLIS      CLEAR     66  52  60 W6        30.01R
ANDREWS AFB    CLEAR     58  51  78 CALM      30.02R
WILMINGTON DE  PTCLDY    64  57  78 NW5       30.00R
PHILADELPHIA   CLOUDY    71  53  52 NW8       29.99R
WILDWOOD NJ*   CLOUDY    70  55  60 W3        29.99F
ATLANTIC CITY  CLOUDY    67  60  78 CALM      29.98R
HENDERSON NC   CLEAR     68  58  69 CALM      30.00S
GREENSBORO     PTCLDY    70  58  65 CALM      30.00R
ROCKY MOUNT    CLEAR     63  61  93 CALM      30.00R
FAYETTEVILLE   CLEAR     71  62  73 CALM      29.98R
CHARLOTTE      PTCLDY    69  60  73 N5        30.00R
$$

VAZ100-300400-
MARINE

STATION/POSITION TIME  TEMP    WIND        PRES    WAVE   SWELL
                       AIR SEA DIR/SP/G            HT/PER HT/PER
                 (UTC) (F)     (DEG/KT/KT) (MB)    (FT/S) (FT/S)
44066 TX TWR #4  0300   71 75  240/  6/  8 1015.0R   3/ 8   3/ 8
CAPE MAY NJ      0300   71 78  290/  6/ 10 1015.0S
LEWES DE         0300   66 74  260/  3/  4 1015.3S
15NM E FENWICK I 0300   72 76              1015.5R   2/ 8
OCEAN-CITY-INLET 0300   67 71  290/  4/  5 1015.4S
WACHAPREAGUE VA  0300   69 80  360/  2/  3 1016.2S
THOMAS POINT MD  0300   68 78  300/  8/ 10 1016.6R
GOOSES REEF MD   0300   72     350/ 12/ 14 1016.6S
COVE POINT MD    0300   69     320/  6/  7 1016.1S
SOLOMONS ISLAND  0300      80                N/A
BISHOPS HEAD MD  0300   68 77  340/  6/  7 1015.6S
PINEY POINT MD   0300           10/  6/  7   N/A
POTOMAC MD       0300   71     350/  8/ 10 1015.6R
CAMBRIDGE MD     0300   72 79  320/  7/ 10 1015.6F
LEWISETTA VA     0300   71 77  280/  5/  6 1016.2S
RAPPAHANNOCK LGT 0300          340/ 12/ 13 1016.6R
STINGRAY PT      0300   74     360/ 12/ 16 1016.7S
YORK RVR RNG VA  0300   74      20/ 11/ 12 1015.5S
YORKTOWN VA      0300   73 79   30/  8/  9 1015.8S
JAMESTOWN VA     0300   71      70/  4/  8   N/A
DOMINION TERM VA 0300   74      50/  4/  6 1016.0R
KIPTOPEKE VA     0300      82   80/  3/  4   N/A
CHES BAY BRIDGE  0300   75 77   60/ 11/ 12 1015.4S
CAPE HENRY VA    0300   74      70/  9/ 11 1014.9R
WILLOUBY STN VA  0300           90/  9/ 10 1015.3R
S CRANEY ISL VA  0300           60/  8/  9 1015.9S
CAPE HENRY BUOY  0300      78                N/A     2/ 8
1ST LANDING BUOY 0300   75      80/ 10/ 12 1015.7R
CAPE CHARLES BUO 0300      76                N/A     2/ 8
OFFSHORE WE BUOY 0300      78                N/A     2/ 7
64NM E OF VA BCH 0300   74 78   30/  8/ 10 1015.6R   2/ 8   2/ 8
DUCK PIER NC     0300   74 74   70/ 12/ 13 1015.2S
44056 DUCK FRF   0300                        N/A     2/ 8
OREGON INLET NC  0300   74 79   50/ 11/ 14 1015.6S
HATTERAS NC      0300   76 81   60/  7/ 14 1015.6F
DIAMOND SHLS NC  0300          VRB 16/ 17  1014.6R   4/ 7   2/ 9
CAPE LOOKOUT NC  0200   77      60/ 17/ 18 1014.6R
$$



USA.gov is the U.S. government's official web portal to all federal, state and local government web resources and services.